CW3508 Weather Reports


Display with metric or nautical units.
time (UTC)temp
F
wind
direction
speed
MPH
gust
MPH
rain 1hr
in
rain 24hr
in
rain mn
in
humidity
%
barometer
mb
20190224024030 69 158 0.0 4.0 0.14 0.29 0.28 97 1009.1
20190224023023 69 159 1.0 7.0 0.18 0.29 0.28 97 1009.1
20190224022535 69 150 2.0 7.0 0.19 0.28 0.27 97 1009.6
20190224022022 69 147 1.0 6.0 0.18 0.27 0.26 97 1009.6
20190224021534 69 160 1.0 5.0 0.18 0.26 0.25 97 1009.6
20190224021021 69 160 0.0 4.0 0.16 0.24 0.23 97 1009.7
20190224020544 69 160 1.0 4.0 0.16 0.24 0.23 96 1009.7
20190224020022 70 161 1.0 4.0 0.15 0.22 0.21 96 1009.7
20190224015534 70 157 0.0 1.0 0.12 0.19 0.18 96 1009.7
20190224015023 70 157 0.0 3.0 0.10 0.17 0.16 95 1009.7
20190224014033 70 154 0.0 3.0 0.07 0.14 0.13 94 1009.6
20190224013521 71 140 0.0 1.0 0.05 0.12 0.11 92 1009.6
20190224013030 71 141 0.0 13.0 0.03 0.10 0.09 91 1009.6
20190224012518 72 141 2.0 13.0 0.02 0.09 0.08 90 1009.5
20190224012027 72 150 2.0 8.0 0.02 0.09 0.08 89 1009.5
20190224011535 72 169 1.0 5.0 0.01 0.08 0.07 88 1009.5
20190224011022 73 313 0.0 4.0 0.01 0.08 0.07 86 1009.4
20190224010530 74 181 0.0 8.0 0.01 0.08 0.07 84 1009.4
20190224010028 74 151 0.0 8.0 0.00 0.07 0.06 82 1009.4
20190224005519 74 155 1.0 15.0 0.00 0.07 0.06 81 1009.1
20190224005031 74 207 1.0 15.0 0.00 0.07 0.06 81 1009.1
20190224004519 74 180 1.0 8.0 0.00 0.07 0.06 80 1009.1
20190224004028 74 227 0.0 10.0 0.00 0.07 0.06 80 1008.7
20190224003516 74 192 3.0 10.0 0.00 0.07 0.06 80 1008.7
20190224003026 74 209 2.0 6.0 0.00 0.07 0.06 80 1008.7
20190224002517 75 169 1.0 9.0 0.00 0.07 0.06 79 1008.7
20190224001533 75 159 4.0 12.0 0.00 0.07 0.06 79 1008.7
20190223235028 75 298 4.0 12.0 0.00 0.07 0.06 80 1008.4
20190223234517 75 329 2.0 14.0 0.00 0.07 0.06 80 1008.4
20190223234029 74 267 1.0 10.0 0.00 0.07 0.06 81 1008.1
20190223233520 75 141 0.0 11.0 0.00 0.07 0.06 81 1008.1
20190223233033 75 86 2.0 12.0 0.00 0.07 0.06 80 1008.1
20190223232526 75 178 1.0 12.0 0.00 0.07 0.06 80 1008.2
20190223232018 74 157 2.0 10.0 0.00 0.07 0.06 81 1008.2
20190223231529 74 167 1.0 9.0 0.00 0.07 0.06 81 1008.2
20190223230532 74 164 2.0 9.0 0.01 0.07 0.06 82 1008.4
20190223230028 73 161 2.0 8.0 0.01 0.07 0.06 84 1008.4
20190223225516 73 161 0.0 10.0 0.01 0.07 0.06 86 1008.6
20190223225028 73 212 0.0 6.0 0.01 0.07 0.06 86 1008.6
20190223224517 73 152 0.0 3.0 0.01 0.07 0.06 87 1008.6
20190223224025 73 152 0.0 3.0 0.01 0.07 0.06 86 1008.4
20190223223534 73 150 0.0 4.0 0.01 0.07 0.06 86 1008.4
20190223223027 74 148 0.0 4.0 0.01 0.07 0.06 84 1008.4
20190223222519 74 145 0.0 5.0 0.01 0.07 0.06 84 1008.3
20190223221529 75 142 3.0 10.0 0.01 0.07 0.06 81 1008.3
20190223221017 76 121 4.0 9.0 0.01 0.07 0.06 77 1007.7
20190223220538 77 192 1.0 10.0 0.00 0.06 0.05 74 1007.7
20190223220033 77 309 2.0 10.0 0.00 0.06 0.05 74 1007.7
20190223215521 77 183 2.0 8.0 0.00 0.06 0.05 73 1007.7
20190223215031 77 169 1.0 10.0 0.00 0.06 0.05 73 1007.7
20190223214519 77 190 3.0 10.0 0.00 0.06 0.05 73 1007.7
20190223214028 78 175 1.0 9.0 0.00 0.06 0.05 73 1008.1
20190223213520 78 98 1.0 19.0 0.00 0.06 0.05 73 1008.1
20190223213032 78 182 6.0 19.0 0.00 0.06 0.05 72 1008.1
20190223212520 78 173 3.0 9.0 0.00 0.06 0.05 74 1008.1
20190223212033 78 26 1.0 15.0 0.00 0.06 0.05 75 1008.1
20190223211522 77 142 5.0 15.0 0.00 0.06 0.05 73 1008.1
20190223211031 77 154 2.0 13.0 0.00 0.06 0.05 74 1008.3
20190223210532 77 175 3.0 13.0 0.00 0.06 0.05 74 1008.3
20190223210027 77 111 2.0 12.0 0.00 0.06 0.05 75 1008.3
20190223205519 76 153 3.0 10.0 0.00 0.06 0.05 77 1008.7
20190223205031 76 161 0.0 8.0 0.00 0.06 0.05 77 1008.7
20190223204518 76 140 1.0 8.0 0.00 0.06 0.05 77 1008.7
20190223204031 76 173 0.0 4.0 0.00 0.06 0.05 79 1009.1
20190223203518 76 165 1.0 8.0 0.00 0.06 0.05 78 1009.1
20190223203029 76 153 2.0 8.0 0.00 0.06 0.05 78 1009.1
20190223202518 76 125 1.0 5.0 0.00 0.06 0.05 80 1009.7
20190223202028 76 171 0.0 4.0 0.00 0.06 0.05 80 1009.7
20190223201518 75 180 1.0 5.0 0.00 0.06 0.05 80 1009.7
20190223201031 76 157 0.0 3.0 0.00 0.06 0.05 80 1009.8
20190223200533 76 146 0.0 5.0 0.00 0.06 0.05 79 1009.8
20190223200028 76 145 1.0 6.0 0.00 0.06 0.05 78 1009.8
20190223195516 76 158 0.0 6.0 0.00 0.06 0.05 81 1010.3
20190223195027 77 164 1.0 6.0 0.00 0.06 0.05 78 1010.3
20190223194535 77 182 1.0 5.0 0.00 0.06 0.05 80 1010.3
20190223194026 76 155 0.0 10.0 0.00 0.06 0.05 80 1010.5
20190223193517 76 170 2.0 6.0 0.00 0.06 0.05 79 1010.5
20190223193027 76 165 1.0 6.0 0.00 0.06 0.05 80 1010.5
20190223192522 76 149 0.0 10.0 0.00 0.06 0.05 80 1010.8
20190223192031 76 180 0.0 6.0 0.00 0.06 0.05 81 1010.8
20190223191520 75 167 0.0 6.0 0.00 0.06 0.05 81 1010.8
20190223191028 75 135 1.0 9.0 0.00 0.06 0.05 80 1011.2
20190223190530 75 140 4.0 9.0 0.00 0.06 0.05 80 1011.2
20190223190027 75 159 0.0 7.0 0.00 0.06 0.05 82 1011.2
20190223185516 75 140 1.0 9.0 0.00 0.06 0.05 81 1011.4
20190223185026 75 136 1.0 9.0 0.00 0.06 0.05 81 1011.4
20190223184520 75 166 2.0 7.0 0.00 0.06 0.05 79 1011.4
20190223184033 75 158 1.0 10.0 0.00 0.06 0.05 80 1011.8
20190223183520 76 169 3.0 11.0 0.00 0.06 0.05 78 1011.8
20190223183029 76 141 2.0 11.0 0.00 0.06 0.05 79 1011.8
20190223182519 76 171 2.0 8.0 0.00 0.06 0.05 79 1012.0
20190223182029 76 150 2.0 10.0 0.00 0.06 0.05 82 1012.0
20190223181516 75 169 2.0 10.0 0.00 0.06 0.05 81 1012.0
20190223181027 74 159 1.0 9.0 0.00 0.06 0.05 83 1012.4
20190223180016 74 77 1.0 7.0 0.00 0.06 0.05 87 1012.4
20190223175526 74 156 2.0 9.0 0.00 0.06 0.05 85 1012.7
20190223175017 74 172 1.0 11.0 0.00 0.06 0.05 84 1012.7
20190223174527 74 160 4.0 11.0 0.00 0.06 0.05 85 1012.7
20190223174036 74 70 1.0 8.0 0.00 0.06 0.05 87 1012.9
20190223173523 73 132 2.0 8.0 0.00 0.06 0.05 86 1012.9
20190223172534 73 142 2.0 8.0 0.00 0.06 0.05 88 1013.4
20190223172023 72 140 3.0 7.0 0.00 0.06 0.05 89 1013.4
20190223171532 71 174 2.0 6.0 0.00 0.06 0.05 91 1013.4
20190223171021 70 280 1.0 6.0 0.00 0.06 0.05 94 1013.8
20190223170543 70 252 1.0 5.0 0.00 0.06 0.05 92 1013.8
20190223170021 70 168 0.0 5.0 0.00 0.06 0.05 92 1013.8
20190223165530 70 167 0.0 5.0 0.00 0.06 0.05 92 1014.0
20190223165023 70 159 0.0 6.0 0.00 0.06 0.05 92 1014.0
20190223164514 70 160 1.0 6.0 0.00 0.06 0.05 91 1014.0
20190223163529 70 195 0.0 7.0 0.00 0.06 0.05 92 1014.0
20190223163020 70 188 1.0 7.0 0.00 0.06 0.05 92 1014.0
20190223162532 70 122 2.0 9.0 0.00 0.06 0.05 92 1014.0
20190223162023 70 175 1.0 7.0 0.00 0.06 0.05 92 1014.0
20190223161532 70 157 3.0 8.0 0.00 0.06 0.05 93 1014.0
20190223161026 70 178 2.0 8.0 0.00 0.06 0.05 92 1014.3
20190223160034 70 146 2.0 7.0 0.00 0.06 0.05 92 1014.3
20190223155526 70 287 1.0 5.0 0.00 0.20 0.05 92 1014.2
20190223155015 70 182 1.0 6.0 0.00 0.20 0.05 93 1014.2
20190223154528 70 113 0.0 9.0 0.00 0.20 0.05 95 1014.2
20190223154019 69 136 2.0 9.0 0.00 0.20 0.05 95 1014.3
20190223153528 69 184 1.0 7.0 0.00 0.20 0.05 95 1014.3
20190223153016 69 171 1.0 9.0 0.00 0.20 0.05 94 1014.3
20190223152526 68 132 3.0 10.0 0.00 0.20 0.05 95 1014.3
20190223152022 68 165 0.0 10.0 0.00 0.20 0.05 96 1014.3
20190223151532 68 227 2.0 10.0 0.00 0.20 0.05 96 1014.3
20190223151020 68 162 3.0 10.0 0.00 0.20 0.05 95 1014.3
20190223150541 68 170 2.0 10.0 0.00 0.20 0.05 96 1014.3
20190223150016 68 182 3.0 8.0 0.00 0.25 0.05 96 1014.3
20190223145529 67 157 1.0 7.0 0.00 0.25 0.05 98 1014.2
20190223145021 67 5 0.0 10.0 0.00 0.25 0.05 99 1014.2
20190223144551 66 360 1.0 10.0 0.00 0.25 0.05 98 1014.2
20190223144017 66 79 1.0 11.0 0.00 0.25 0.05 98 1014.5
20190223143527 66 148 0.0 11.0 0.00 0.25 0.05 99 1014.5
20190223143021 66 159 1.0 7.0 0.00 0.25 0.05 99 1014.5
20190223142530 66 196 0.0 2.0 0.00 0.25 0.05 99 1014.5
20190223142023 66 196 0.0 7.0 0.00 0.25 0.05 99 1014.5
20190223141513 65 149 1.0 6.0 0.00 0.25 0.05 99 1014.5
20190223141026 65 172 1.0 6.0 0.00 0.25 0.05 99 1014.3
20190223140546 65 179 0.0 9.0 0.00 0.25 0.05 99 1014.3
20190223140024 65 210 4.0 9.0 0.00 0.25 0.05 99 1014.3
20190223135535 65 148 0.0 6.0 0.00 0.33 0.05 99 1014.1
20190223135030 65 171 0.0 10.0 0.00 0.33 0.05 100 1014.1
20190223134520 65 124 2.0 10.0 0.00 0.33 0.05 100 1014.1
20190223134029 65 174 1.0 6.0 0.00 0.33 0.05 100 1014.2
20190223133517 65 167 0.0 3.0 0.00 0.33 0.05 100 1014.2
20190223133026 65 163 0.0 8.0 0.00 0.33 0.05 100 1014.2
20190223132515 65 163 1.0 8.0 0.00 0.33 0.05 100 1014.0
20190223132027 65 182 1.0 6.0 0.00 0.33 0.05 100 1014.0
20190223131516 65 174 1.0 6.0 0.00 0.33 0.05 100 1014.0
20190223131026 64 145 1.0 5.0 0.00 0.33 0.05 100 1014.0
20190223130530 64 208 0.0 4.0 0.00 0.33 0.05 100 1014.0
20190223130025 64 201 1.0 4.0 0.00 0.33 0.05 100 1014.0
20190223125532 64 188 0.0 3.0 0.00 0.34 0.05 100 1014.1
20190223125020 64 203 1.0 3.0 0.00 0.34 0.05 100 1014.1
20190223124529 64 201 0.0 3.0 0.00 0.34 0.05 100 1014.1
20190223124020 64 201 0.0 3.0 0.00 0.34 0.05 100 1014.2
20190223123530 64 205 0.0 3.0 0.00 0.34 0.05 100 1014.2
20190223123018 64 163 0.0 3.0 0.00 0.34 0.05 100 1014.2
20190223122530 63 163 0.0 5.0 0.00 0.34 0.05 100 1014.4
20190223122025 63 161 1.0 5.0 0.00 0.34 0.05 100 1014.4
20190223121534 63 155 0.0 3.0 0.00 0.34 0.05 100 1014.4
20190223121022 63 155 0.0 5.0 0.00 0.34 0.05 100 1014.1
20190223120543 63 154 0.0 5.0 0.00 0.34 0.05 100 1014.1
20190223120021 63 154 1.0 6.0 0.00 0.35 0.05 100 1014.1
20190223115531 63 154 0.0 6.0 0.00 0.35 0.05 100 1014.0
20190223115022 63 184 0.0 7.0 0.00 0.35 0.05 100 1014.0
20190223114531 63 184 0.0 7.0 0.00 0.35 0.05 100 1014.0
20190223114025 63 158 1.0 5.0 0.00 0.35 0.05 100 1014.0
20190223113534 63 132 0.0 6.0 0.00 0.35 0.05 100 1014.0
20190223113022 62 130 1.0 6.0 0.00 0.35 0.05 100 1014.0
20190223112532 62 169 0.0 8.0 0.00 0.35 0.05 100 1014.0
20190223112020 62 169 2.0 8.0 0.00 0.35 0.05 100 1014.0
20190223111532 62 180 1.0 5.0 0.00 0.35 0.05 100 1014.0
20190223111020 62 164 0.0 4.0 0.00 0.35 0.05 100 1014.0
20190223110544 62 164 1.0 6.0 0.00 0.35 0.05 100 1014.0
20190223110019 61 153 0.0 6.0 0.00 0.39 0.05 100 1014.0
20190223105533 61 188 1.0 6.0 0.00 0.39 0.05 100 1014.0
20190223105023 61 205 1.0 6.0 0.00 0.39 0.05 100 1014.0
20190223104516 61 163 0.0 4.0 0.00 0.39 0.05 100 1014.0
20190223104029 61 159 0.0 4.0 0.00 0.39 0.05 100 1014.0
20190223103520 61 159 1.0 5.0 0.00 0.39 0.05 100 1014.0
20190223103029 61 159 1.0 5.0 0.00 0.39 0.05 100 1014.0
20190223102025 60 159 0.0 2.0 0.00 0.39 0.05 100 1013.9
20190223101535 60 157 0.0 4.0 0.00 0.39 0.05 100 1013.9
20190223101024 60 157 1.0 4.0 0.00 0.39 0.05 100 1013.8
20190223100549 60 101 0.0 0.0 0.00 0.39 0.05 100 1013.8
20190223100027 60 101 0.0 2.0 0.00 0.39 0.05 100 1013.8
20190223095519 60 101 0.0 2.0 0.00 0.39 0.05 100 1013.8
20190223095031 59 101 0.0 0.0 0.00 0.39 0.05 100 1013.8
20190223094523 59 101 0.0 0.0 0.00 0.39 0.05 100 1013.8
20190223094035 59 101 0.0 0.0 0.00 0.39 0.05 100 1013.8
20190223093527 59 101 0.0 0.0 0.00 0.39 0.05 100 1013.8
20190223093017 59 101 0.0 0.0 0.01 0.39 0.05 100 1013.8
20190223092534 59 101 0.0 0.0 0.01 0.39 0.05 100 1013.9
20190223092025 59 101 0.0 0.0 0.01 0.39 0.05 100 1013.9
20190223091537 59 101 0.0 0.0 0.01 0.39 0.05 100 1013.9
20190223091026 59 101 0.0 2.0 0.01 0.39 0.05 100 1013.9
20190223090547 59 101 0.0 2.0 0.01 0.39 0.05 100 1013.9
20190223090023 59 101 0.0 2.0 0.01 0.39 0.05 100 1013.9
20190223085535 59 101 0.0 2.0 0.01 0.39 0.05 100 1014.0
20190223085024 58 101 0.0 1.0 0.01 0.39 0.05 100 1014.0
20190223084516 58 101 0.0 1.0 0.01 0.39 0.05 100 1014.0
20190223084028 58 101 0.0 2.0 0.01 0.39 0.05 100 1014.1
20190223083537 58 101 0.0 2.0 0.01 0.39 0.05 100 1014.1
20190223083026 58 101 0.0 0.0 0.00 0.38 0.04 100 1014.1
20190223082536 57 101 0.0 0.0 0.00 0.38 0.04 100 1014.3
20190223082024 57 101 0.0 0.0 0.00 0.38 0.04 100 1014.3
20190223081533 57 101 0.0 0.0 0.00 0.38 0.04 100 1014.3
20190223081022 57 101 0.0 0.0 0.00 0.38 0.04 100 1014.5
20190223080546 57 101 0.0 0.0 0.00 0.38 0.04 100 1014.5
20190223080024 57 101 0.0 0.0 0.00 0.38 0.04 100 1014.5
20190223075534 57 101 0.0 0.0 0.00 0.41 0.04 100 1014.5
20190223075021 57 101 0.0 0.0 0.00 0.41 0.04 100 1014.5
20190223074533 57 101 0.0 0.0 0.00 0.41 0.04 100 1014.5
20190223074023 57 101 0.0 0.0 0.00 0.41 0.04 100 1014.5
20190223073549 57 101 0.0 0.0 0.00 0.41 0.04 100 1014.5
20190223073041 57 101 0.0 0.0 0.01 0.41 0.04 100 1014.5
20190223072550 57 101 0.0 0.0 0.02 0.41 0.04 100 1014.4
20190223072040 57 101 0.0 0.0 0.03 0.41 0.04 100 1014.4
20190223071530 57 101 0.0 0.0 0.04 0.41 0.04 100 1014.4
20190223071035 57 101 0.0 0.0 0.04 0.41 0.04 100 1014.7
20190223070533 57 101 0.0 0.0 0.04 0.41 0.04 100 1014.7
20190223070050 57 101 0.0 0.0 0.04 0.41 0.04 100 1014.7
20190223065526 57 101 0.0 0.0 0.04 0.41 0.04 100 1014.6
20190223065035 57 101 0.0 0.0 0.04 0.41 0.04 100 1014.6
20190223064528 57 101 0.0 0.0 0.04 0.41 0.04 100 1014.6
20190223064022 57 101 0.0 0.0 0.04 0.41 0.04 100 1014.9
20190223063534 57 101 0.0 0.0 0.04 0.41 0.04 100 1014.9
20190223063026 57 101 0.0 0.0 0.03 0.40 0.03 100 1014.9
20190223062538 57 101 0.0 0.0 0.02 0.39 0.02 100 1014.6
20190223062028 57 101 0.0 0.0 0.01 0.38 0.01 100 1014.6
20190223061519 57 101 0.0 0.0 0.00 0.37 0.00 100 1014.6
20190223061030 57 101 0.0 0.0 0.00 0.37 0.00 100 1015.0
20190223060534 57 101 0.0 0.0 0.00 0.37 0.00 100 1015.0
20190223060030 57 101 0.0 0.0 0.00 0.37 0.00 100 1015.0
20190223055537 57 101 0.0 0.0 0.00 0.40 0.37 100 1015.2
20190223055025 56 101 0.0 0.0 0.00 0.40 0.37 100 1015.2
20190223054535 56 101 0.0 0.0 0.00 0.40 0.37 100 1015.2
20190223054023 56 101 0.0 0.0 0.00 0.40 0.37 100 1015.5
20190223053533 57 101 0.0 1.0 0.00 0.40 0.37 100 1015.5
20190223053027 57 101 0.0 1.0 0.00 0.40 0.37 100 1015.5
20190223052515 56 101 0.0 0.0 0.00 0.40 0.37 100 1015.4
20190223052029 56 101 0.0 0.0 0.00 0.40 0.37 100 1015.4
20190223051518 57 101 0.0 0.0 0.00 0.40 0.37 100 1015.4
20190223051030 57 101 0.0 0.0 0.00 0.40 0.37 100 1016.1
20190223050551 57 101 0.0 0.0 0.00 0.40 0.37 100 1016.1
20190223050027 57 101 0.0 0.0 0.00 0.40 0.37 100 1016.1
20190223045537 57 101 0.0 0.0 0.00 0.53 0.37 100 1016.3
20190223045030 57 101 0.0 0.0 0.00 0.53 0.37 100 1016.3
20190223044021 57 101 0.0 0.0 0.00 0.53 0.37 99 1016.5
20190223043531 57 101 0.0 0.0 0.00 0.53 0.37 99 1016.5
20190223043020 57 101 0.0 0.0 0.00 0.53 0.37 99 1016.5
20190223042533 57 101 0.0 0.0 0.00 0.53 0.37 99 1016.5
20190223042020 57 101 0.0 1.0 0.00 0.53 0.37 99 1016.5
20190223041530 57 101 0.0 2.0 0.00 0.53 0.37 99 1016.5
20190223041018 57 101 0.0 2.0 0.00 0.53 0.37 99 1016.5
20190223040542 57 101 0.0 0.0 0.00 0.53 0.37 99 1016.5
20190223040020 57 101 0.0 0.0 0.01 0.56 0.37 99 1016.5
20190223035532 57 101 0.0 0.0 0.01 0.56 0.37 99 1016.6
20190223035023 57 101 0.0 0.0 0.01 0.56 0.37 99 1016.6
20190223034533 57 101 0.0 0.0 0.01 0.56 0.37 99 1016.6
20190223034021 57 101 0.0 0.0 0.01 0.56 0.37 99 1016.6
20190223033534 57 101 0.0 0.0 0.01 0.56 0.37 99 1016.6
20190223033027 57 101 0.0 0.0 0.01 0.56 0.37 99 1016.6
20190223032533 57 101 0.0 0.0 0.01 0.56 0.37 99 1016.9
20190223032021 57 101 0.0 0.0 0.01 0.56 0.37 99 1016.9
20190223031535 57 101 0.0 0.0 0.01 0.56 0.37 99 1016.9
20190223031027 57 101 0.0 1.0 0.01 0.56 0.37 99 1016.7
20190223030547 57 101 0.0 1.0 0.01 0.56 0.37 98 1016.7
20190223030022 57 101 0.0 0.0 0.00 0.69 0.36 98 1016.7
20190223025532 57 101 0.0 0.0 0.00 0.69 0.36 98 1016.8
20190223025021 57 101 0.0 0.0 0.00 0.69 0.36 98 1016.8
20190223024531 57 101 0.0 0.0 0.00 0.69 0.36 98 1016.8